Tracking 30744 objects as of 23-Jun-2025
HD Live streaming from Space Station
objects crossing your sky now

ALOS DEB

Track ALOS DEB now!
10-day predictions


NORAD ID: 35418
Int'l Code: 2006-002Z
Perigee: 629.2 km
Apogee: 631.0 km
Inclination: 98.2 °
Period: 97.2 minutes
Semi major axis: 7001 km
RCS: 0.0242 m2 (small)
Launch date: January 24, 2006
Source: Japan (JPN)
Launch site: TANEGASHIMA SPACE CENTER (TNSTA)

Note: This is SATELLITE DEBRIS
Your satellite tracking list
Your tracking list is empty




NASA's NSSDC Master Catalog

Two Line Element Set (TLE):
1 35418U 06002Z   25173.38732946  .00002817  00000-0  36183-3 0  9991
2 35418  98.1576 147.4456 0001284  63.9725  91.8264 14.82020962980738
Source of the keplerian elements: AFSPC